DECAYED

STARLINK-5015, 53931 (Decayed)

Orbit data source: Space-Track

STARLINK-5015, 53931 was a payload satellite owned by SpaceX/Seattle (US) in LEO that was launched on Sat, 24 Sep 2022 UTC via an FALCON 9 launch vehicle from the Air Force Eastern Test Range (AFETR). Payload-class satellites include a variety of spacecraft equipped with specific instruments for various scientific and technological missions. These include communications satellites like Starlink; space stations such as the ISS; scientific satellites like the Hubble; Earth observation satellites from companies like Planet Labs, Umbra, and HawkEye 360; GPS; miniature CubeSats for education and research; and military/defense satellites.

Not visible in the next 10 days
Identifier
53931, 2022-119AX
Orbit
Decayed
Country
Flag of USUS
Related business
Manufacturer
SpaceX/Seattle
Mission
Decayed Commercial Communications
Bus & Motor
STARLINK, Unknown motor
Mass
305 kg wet, ~290 kg dry
Launch date (UTC)
2022-09-24 (4 years ago)
Launch vehicle
FALCON 9
Launch site
Air Force Eastern Test Range (AFETR)
Object type
Payload
Rocket body
Debris
Shape & HBR
Box + 1 Pan, 10.1 m
Radar Cross Section
13.562 m², Large (>1 m²)

Expand to show TLE details & history
Last TLE update: 7 months ago

TLE from 7 months ago
0 STARLINK-5015
1 53931U 22119AX  25331.60674369  .09762680  12431-4  47245-3 0  9999
2 53931  53.1940   8.0757 0000879 241.3479 118.7482 16.43226497177039
Epoch: 2025-11-27T14:33Z
TLE epoch observation values (Epoch: 2025-11-27T14:33:42.654Z)
Latitude
-0.00009°
Longitude
82.88667°
Altitude
158.457 km
Speed
7.812 km/s
True Right ascension
00h 32m 18s
True Declination
0° 00' 00"
Sunlit
Object was in full shadow at epoch
Visualization orbit readout
Latitude
Unknown
Longitude
Unknown
Altitude
Unknown
Speed
Unknown
Apparent Right ascension
Unknown
Apparent Declination
Unknown
Sunlit
N/A
Visualization observer readout
Local Sidereal Time
21:34:00
Azimuth
Unknown
Elevation
Unknown
Doppler factor
Unknown
Orbital elements
Apogee altitude
158.071 km
Perigee altitude
156.922 km
Semi-major axis
6,535.633 km
Eccentricity
0.00009
Inclination
53.194°
RAAN
8.0757°
Arg. of periapsis
241.3479°
True anomaly
118.75703°
Mean anomaly
118.7482°
Eccentric anomaly
118.75262°
Mean motion
4.10782 °/min
Orbital period
87.64 mins
BSTAR
0.00047245
Loading maneuver chart data...
Computing Atmospheric mass density...
Loading historical data...
Loading historical data...
Loading historical data...
Loading historical data...
Loading historical data...
Loading historical data...
Loading historical data...

Documentation

Showing up to 5 results
|